Home > Time Zones > World Clock > Weather > Palau > Koror > Past weeks

Flag for Palau Weather past 2 weeks in Koror, Palau

Now
79 °F

Passing clouds.


Feels Like: 82 °F
Forecast: 81 / 84 °F
Wind: 10 mph from Northeast

Location: Koror / Palau Island

Current Time: Feb 28, 2015 at 7:04:37 AM

Latest Report: Feb 28, 2015 at 5:50 AM


Visibility: 14 mi

Pressure: 29.83 "Hg

Humidity: 89%

Dew point: 75 °F

Location of KororLocation

Historic Weather in Koror — Graph

°F

Koror temperature yesterday

Maximum temperature yesterday: 86 °F (at 10:50 AM)
Minimum temperature yesterday: 77 °F (at 4:50 AM)
Average temperature yesterday: 80 °F

Past Weeks' High & Low Weather Summary

 TemperatureHumidityPressure
High86 °F (Feb 13, 12:50 PM)100% (Feb 16, 8:50 AM)29.93 "Hg (Feb 16, 8:50 AM)
Low75 °F (Feb 13, 5:50 AM)62% (Feb 14, 10:50 AM)29.73 "Hg (Feb 17, 3:50 PM)
Average80 °F83%29.85 "Hg
* Reported Feb 13 5:50 AM — Feb 28 5:50 AM, Koror, Weather by CustomWeather, © 2015

Note: Actual official high and low records may vary slightly from our data, if they occured in-between our weather recording intervals... More about our weather records

Advertising

Koror weather history for previous 24 hours

 ConditionsComfort  
Time TempWeatherWind HumidityBarometerVisibility
5:50 AM
Sat, Feb 28
79 °FPassing clouds.10 mph89%29.83 "Hg14 mi
4:55 AM79 °FPassing clouds.N/A84%29.82 "Hg14 mi
3:55 AM79 °FPassing clouds.13 mph84%29.81 "Hg14 mi
2:50 AM79 °FPassing clouds.10 mph89%29.81 "Hg14 mi
1:50 AM79 °FPartly cloudy.9 mph89%29.83 "Hg14 mi
12:50 AM79 °FPartly cloudy.10 mph89%29.84 "Hg14 mi
11:55 PM
Fri, Feb 27
79 °FPartly cloudy.12 mph89%29.85 "Hg14 mi
10:55 PM79 °FPartly cloudy.10 mph89%29.86 "Hg14 mi
9:50 PM79 °FPartly cloudy.10 mph89%29.87 "Hg14 mi
8:51 PM77 °FOvercast.7 mph94%29.85 "Hg14 mi
7:50 PM79 °FPartly cloudy.8 mph89%29.84 "Hg14 mi
6:55 PM77 °FOvercast.3 mph89%29.83 "Hg14 mi
5:50 PM79 °FCloudy.9 mph84%29.82 "Hg14 mi
4:51 PM79 °FSprinkles. Mostly cloudy.12 mph89%29.81 "Hg12 mi
3:50 PM81 °FMostly cloudy.12 mph84%29.79 "Hg13 mi
2:50 PM82 °FMostly cloudy.14 mph79%29.80 "Hg14 mi
1:50 PM84 °FBroken clouds.13 mph74%29.81 "Hg14 mi
12:50 PM84 °FBroken clouds.16 mph74%29.83 "Hg14 mi
11:50 AM86 °FBroken clouds.14 mph70%29.86 "Hg14 mi
10:50 AM86 °FBroken clouds.13 mph70%29.88 "Hg14 mi
9:50 AM84 °FPartly sunny.8 mph74%29.89 "Hg14 mi
8:50 AM82 °FBroken clouds.10 mph79%29.89 "Hg14 mi
7:50 AM82 °FBroken clouds.10 mph79%29.88 "Hg15 mi
Weather by CustomWeather, © 2015

See weather overviewHow to use our weather pages